Wind_Speed
22 21 21 22 21 22 22 22 21 20 19 19 19 18 18 17 16 16 15 14 13 13 13 13 13 12 12 12 12 12 12 12 12 12 12 12 12 12 12 11 10 10 10 10
22 22 22 22 21 21 23 23 22 21 20 19 18 18 18 18 18 17 17 16 15 15 14 13 13 13 13 13 13 13 12 12 12 12 13 13 12 13 13 12 12 12 12 11
22 22 22 23 21 22 23 23 21 22 21 20 19 19 19 18 18 18 17 17 17 16 15 15 14 14 14 14 14 14 13 13 13 12 13 13 13 14 14 14 13 13 13 13
24 24 24 22 21 22 22 23 22 21 21 21 21 21 20 19 18 18 19 18 18 17 17 17 17 16 16 16 16 15 15 14 14 14 14 14 14 14 14 15 15 15 14 14
24 25 24 22 22 22 23 23 22 22 21 22 21 21 21 21 19 19 19 19 20 19 19 18 18 18 18 17 17 16 16 15 15 15 15 15 15 15 15 15 16 16 16 16
24 25 24 21 21 22 23 23 22 23 22 22 22 22 22 22 22 21 22 21 20 20 21 21 20 20 19 18 18 17 17 16 16 16 16 16 16 16 16 16 16 17 17 17
25 25 24 22 21 22 22 22 22 22 22 23 23 23 23 23 23 23 23 23 23 22 22 22 22 21 21 20 20 20 20 19 18 18 18 18 17 17 17 18 18 17 17 18
25 25 23 22 22 23 23 23 22 22 23 23 24 24 24 24 24 24 25 25 25 24 24 24 24 23 23 23 23 23 23 22 20 19 19 19 19 19 19 19 19 19 19 19
25 24 23 23 24 25 25 24 23 23 23 24 25 25 25 25 25 25 25 26 26 25 25 24 24 25 25 25 25 25 24 24 23 22 21 21 20 20 20 20 21 20 20 21
25 25 25 24 25 26 26 26 25 25 26 26 26 26 26 26 26 26 26 26 26 27 26 25 25 26 25 26 26 26 25 25 25 24 24 23 23 22 22 22 22 22 22 22
25 25 24 24 25 26 27 27 27 27 27 27 26 25 25 26 26 26 27 27 27 28 27 27 27 26 26 26 26 27 26 27 27 26 26 25 24 24 24 24 24 24 24 24
25 26 26 24 25 25 26 26 26 26 27 27 27 27 26 26 27 27 27 27 27 27 28 28 27 27 27 27 28 28 28 28 27 28 27 27 26 26 26 26 26 26 27 27
26 26 26 25 25 25 25 25 26 26 27 27 27 27 27 26 26 27 26 26 26 27 28 28 27 28 28 28 28 28 27 28 28 28 29 29 28 27 27 27 28 28 28 29
27 27 26 26 26 26 27 26 26 26 26 26 26 26 26 26 26 26 26 26 27 27 27 28 28 28 28 28 29 28 28 29 29 29 29 30 30 30 30 29 29 30 30 30
27 27 27 27 27 27 27 27 26 26 25 25 26 26 26 26 27 27 27 27 26 26 27 28 28 28 28 29 30 30 30 30 31 31 31 31 32 32 32 31 31 31 31 31
27 27 27 27 27 27 27 27 26 25 25 25 26 26 26 26 27 27 27 27 26 26 27 27 27 28 29 30 30 31 31 31 32 32 32 33 33 33 33 33 32 32 32 32
26 26 26 26 26 26 26 25 25 24 24 25 25 26 26 27 27 27 27 27 27 27 27 27 28 28 29 29 30 31 30 31 31 32 32 33 33 34 33 33 32 32 32 33
26 26 26 25 25 26 26 25 24 24 25 25 25 26 26 26 27 27 27 27 28 28 28 28 29 29 29 29 29 30 30 30 31 31 32 33 33 33 33 33 33 32 33 34
26 26 26 26 26 25 26 26 26 25 25 26 26 26 26 26 26 27 27 27 28 28 28 28 29 29 28 28 29 29 29 30 30 31 32 32 32 32 32 32 33 33 34 35
27 27 27 26 26 26 26 26 26 26 26 27 27 27 27 27 27 28 28 28 28 28 28 28 28 29 29 29 29 29 29 29 30 30 31 31 32 32 32 32 33 34 35 35
27 26 26 26 26 26 27 27 27 27 28 27 27 27 27 28 28 28 29 29 29 29 30 30 29 30 30 30 30 30 29 29 30 30 30 31 31 31 32 32 33 35 35 36
26 26 27 27 26 26 26 26 27 28 28 28 28 29 29 29 29 29 29 29 29 30 30 30 31 31 30 30 30 30 30 30 30 30 30 31 31 32 32 33 34 34 35 36
25 25 26 26 26 26 26 26 27 28 28 29 29 29 30 30 30 30 29 29 30 30 30 30 30 30 30 30 30 30 30 30 31 31 31 31 32 32 33 33 34 35 36 36
25 25 26 26 26 26 27 27 28 28 28 28 28 29 30 29 29 30 30 30 30 30 30 30 30 30 31 31 30 30 30 30 30 30 31 32 32 32 33 33 34 35 35 35
25 25 26 26 27 28 28 28 28 28 29 29 29 29 30 30 30 29 30 29 29 30 30 30 30 30 30 30 30 30 30 30 30 30 31 31 32 33 33 33 34 35 35 35
26 26 26 27 27 27 28 28 28 28 29 29 30 30 30 31 31 31 31 30 30 30 30 30 31 31 31 30 30 30 31 31 32 32 32 32 32 33 34 35 36 36 36 36
27 26 26 26 27 27 28 28 28 28 29 29 29 29 30 31 31 32 32 32 31 30 30 31 32 32 32 33 32 32 32 33 33 33 33 33 34 35 35 36 37 36 36 37
Wind_Direction
253 251 249 246 246 248 251 253 253 255 257 258 259 263 266 269 271 275 277 276 275 275 276 277 277 277 277 276 277 279 281 280 274 274 275 274 271 272 273 273 274 273 275 276
254 252 250 248 247 251 251 253 253 251 253 257 257 259 263 266 269 271 271 272 274 274 274 270 271 273 272 272 274 276 276 275 275 276 275 274 272 271 271 271 271 270 271 273
254 253 253 251 250 251 250 250 254 252 253 255 255 258 262 265 266 265 266 270 273 272 270 270 270 272 273 273 273 275 273 271 271 275 276 273 274 273 271 273 272 269 270 272
253 252 252 252 251 251 252 253 255 254 252 253 254 256 260 262 261 261 262 265 268 269 269 269 269 269 270 271 271 272 273 270 268 271 273 273 274 274 273 273 272 270 270 270
254 253 253 250 249 251 253 254 255 254 254 255 256 257 259 261 261 262 261 262 264 266 267 267 269 269 268 269 268 270 270 268 269 270 271 273 275 275 273 273 273 271 269 269
255 253 252 250 248 252 254 254 252 255 257 258 260 261 262 262 261 260 260 261 263 265 266 267 268 269 269 268 268 269 270 269 270 274 273 273 273 273 272 272 273 272 271 269
255 255 254 253 251 253 253 256 254 255 256 259 261 263 264 264 262 260 260 262 263 264 265 266 267 268 267 266 268 268 269 271 271 272 273 274 273 272 272 271 272 271 271 270
256 255 254 255 252 254 256 256 257 258 259 261 262 263 263 264 263 261 262 263 263 263 263 265 267 267 266 264 264 265 268 270 270 269 270 271 272 272 271 270 269 269 269 271
257 256 258 259 257 257 257 258 260 261 262 262 262 263 263 264 263 262 262 264 264 264 264 264 265 266 265 263 263 264 266 267 268 268 268 268 270 270 270 269 268 268 269 270
257 256 257 258 258 259 260 261 262 262 264 264 263 263 263 264 264 264 263 263 263 263 262 262 264 264 263 262 263 264 266 266 267 267 267 267 268 269 269 269 268 267 268 270
256 255 255 257 260 261 262 262 263 263 263 264 265 263 264 264 265 265 264 263 263 262 263 264 263 263 262 262 263 263 263 264 265 266 266 266 266 267 268 269 270 270 270 272
256 255 256 257 259 260 262 262 262 264 265 265 266 264 264 265 265 266 266 265 265 263 263 263 263 262 262 262 263 263 262 263 265 265 265 265 266 267 268 268 269 272 271 271
257 256 255 256 258 261 263 264 265 265 265 265 266 265 265 266 266 265 264 263 263 263 262 262 261 262 263 264 264 263 263 263 265 265 264 264 265 266 268 269 270 272 273 272
255 256 257 257 257 260 262 264 266 266 265 265 265 265 264 265 265 265 264 263 263 263 262 262 262 263 263 264 265 265 264 264 265 265 264 264 265 266 268 270 271 272 273 273
256 257 257 257 257 258 260 264 265 265 266 266 266 265 265 265 265 266 265 264 263 262 262 263 265 264 265 265 266 266 266 265 265 265 265 265 266 268 269 270 270 271 272 274
256 258 257 258 258 259 261 263 265 266 266 266 265 266 265 265 264 265 266 265 263 263 263 266 267 267 266 267 268 268 267 265 264 264 264 265 266 268 269 270 271 271 272 273
256 258 258 260 261 261 261 262 263 264 266 266 266 266 266 265 265 266 266 266 266 266 266 267 268 269 269 268 269 269 268 265 264 264 265 266 266 267 269 271 272 271 273 274
257 259 260 262 264 262 260 261 262 264 264 265 266 266 266 266 266 266 266 266 267 267 267 267 268 270 271 270 270 269 267 266 265 266 267 267 267 268 268 270 271 271 273 275
257 259 260 261 262 262 261 261 263 263 264 265 266 267 267 266 266 266 266 266 267 268 268 268 269 269 270 270 270 270 269 268 267 267 267 268 269 269 270 270 271 272 274 275
258 259 260 262 262 262 263 264 264 263 265 267 266 267 267 267 267 267 268 267 268 269 269 269 270 270 270 270 270 270 271 270 269 268 267 268 269 269 270 271 272 273 275 276
260 261 262 264 265 265 266 266 264 264 266 268 267 266 266 267 267 267 268 267 267 267 268 269 270 271 271 270 269 270 271 271 270 268 268 268 269 270 271 272 273 275 276 277
260 261 263 265 265 267 268 267 266 264 265 267 267 266 266 267 267 268 268 268 268 268 269 270 271 271 271 270 270 270 270 271 270 269 268 268 269 271 273 274 275 276 277 278
261 262 264 266 266 266 267 268 266 265 265 267 268 268 267 267 267 268 269 270 269 269 270 270 271 271 270 271 271 271 271 272 271 270 270 271 272 273 274 275 277 278 278 278
262 263 265 266 266 266 266 267 267 267 267 268 268 268 266 266 267 268 270 271 270 270 271 271 271 270 270 272 272 272 272 273 274 273 273 273 273 274 276 277 278 279 279 279
264 265 267 266 266 266 266 266 267 268 267 267 267 267 266 265 266 267 269 271 271 271 272 271 271 270 271 272 273 273 273 274 274 274 275 276 276 276 277 278 279 280 280 280
266 267 268 267 266 266 267 267 268 268 267 267 267 266 266 265 266 268 269 271 270 270 271 271 272 271 272 273 274 274 274 274 274 275 276 277 278 279 279 280 280 280 282 282
267 267 268 267 266 266 267 268 270 269 269 269 269 269 269 268 267 268 270 270 271 271 271 272 272 272 273 273 273 274 274 274 275 277 278 278 279 280 280 280 280 280 282 283
Height
5807 5808 5809 5810 5812 5813 5814 5815 5816 5818 5819 5820 5820 5821 5821 5822 5822 5821 5821 5822 5822 5821 5821 5821 5820 5820 5820 5819 5819 5818 5817 5817 5816 5816 5816 5815 5815 5815 5815 5815 5815 5815 5814 5814
5801 5802 5803 5804 5806 5807 5808 5809 5810 5811 5813 5814 5814 5816 5816 5817 5817 5817 5817 5817 5817 5817 5817 5816 5816 5816 5816 5815 5815 5814 5814 5813 5812 5812 5812 5811 5811 5811 5811 5811 5811 5811 5810 5810
5795 5796 5797 5798 5800 5801 5802 5803 5804 5805 5807 5808 5808 5809 5810 5811 5811 5812 5812 5812 5812 5812 5812 5812 5812 5811 5811 5810 5810 5810 5809 5809 5809 5808 5808 5808 5807 5807 5807 5807 5807 5807 5806 5806
5788 5790 5790 5795 5794 5795 5796 5797 5798 5799 5800 5801 5802 5803 5804 5805 5805 5806 5806 5806 5806 5806 5807 5807 5807 5806 5806 5805 5805 5805 5805 5804 5804 5804 5804 5803 5803 5803 5803 5803 5802 5802 5802 5802
5782 5782 5784 5788 5788 5788 5789 5791 5792 5793 5794 5795 5795 5796 5797 5798 5798 5799 5800 5800 5801 5801 5801 5801 5801 5801 5800 5800 5800 5800 5800 5799 5799 5799 5799 5799 5798 5798 5798 5798 5798 5797 5797 5797
5775 5775 5777 5782 5782 5782 5784 5784 5786 5786 5787 5788 5788 5789 5791 5791 5791 5792 5793 5793 5794 5794 5794 5794 5794 5795 5795 5794 5794 5794 5794 5794 5794 5794 5793 5793 5793 5793 5793 5793 5793 5792 5792 5792
5769 5768 5770 5774 5774 5775 5777 5779 5779 5779 5780 5781 5781 5783 5784 5784 5784 5785 5785 5786 5786 5786 5787 5787 5787 5788 5788 5788 5788 5788 5788 5788 5788 5788 5788 5788 5788 5787 5787 5787 5787 5787 5786 5786
5762 5762 5766 5766 5767 5769 5770 5770 5771 5772 5772 5773 5774 5774 5775 5775 5776 5777 5777 5778 5778 5779 5779 5780 5780 5780 5781 5781 5781 5781 5781 5781 5782 5782 5782 5782 5781 5781 5781 5781 5781 5781 5780 5780
5756 5758 5758 5759 5759 5760 5761 5762 5763 5764 5764 5765 5765 5766 5767 5767 5768 5768 5769 5770 5770 5771 5771 5772 5772 5772 5773 5773 5773 5774 5774 5774 5774 5775 5775 5775 5775 5775 5775 5775 5775 5775 5774 5774
5748 5749 5750 5751 5751 5752 5753 5754 5755 5756 5756 5756 5757 5757 5758 5758 5759 5759 5760 5761 5761 5762 5763 5764 5764 5764 5765 5765 5766 5766 5766 5766 5767 5767 5768 5768 5768 5768 5768 5768 5768 5768 5768 5767
5740 5741 5742 5743 5743 5744 5745 5746 5746 5747 5748 5748 5748 5749 5749 5750 5750 5750 5751 5752 5753 5753 5754 5755 5755 5756 5756 5757 5757 5758 5758 5758 5758 5759 5759 5760 5760 5760 5761 5761 5760 5760 5760 5760
5732 5734 5734 5735 5736 5736 5737 5738 5738 5739 5739 5739 5739 5740 5740 5741 5741 5742 5742 5743 5744 5744 5745 5746 5746 5747 5748 5748 5748 5749 5749 5750 5750 5750 5751 5751 5752 5752 5752 5752 5752 5752 5752 5752
5724 5725 5726 5727 5728 5728 5728 5729 5729 5729 5729 5729 5729 5730 5730 5731 5732 5733 5733 5734 5734 5735 5736 5736 5737 5738 5739 5739 5739 5740 5740 5741 5741 5742 5742 5742 5743 5743 5743 5744 5743 5743 5743 5742
5715 5716 5718 5719 5720 5720 5720 5721 5721 5721 5720 5720 5720 5721 5721 5722 5723 5724 5725 5725 5726 5726 5727 5727 5728 5729 5730 5730 5730 5731 5731 5732 5732 5732 5733 5733 5734 5734 5734 5734 5734 5733 5733 5733
5707 5708 5710 5711 5711 5712 5712 5712 5713 5713 5712 5712 5712 5712 5713 5714 5715 5715 5716 5716 5717 5718 5718 5718 5719 5720 5720 5720 5720 5721 5721 5722 5722 5723 5723 5723 5724 5724 5724 5724 5724 5723 5723 5722
5699 5700 5701 5702 5703 5703 5704 5704 5704 5705 5704 5704 5704 5705 5705 5706 5706 5707 5707 5708 5708 5709 5710 5710 5710 5710 5710 5710 5710 5710 5710 5711 5711 5712 5712 5713 5713 5713 5713 5713 5713 5713 5712 5712
5691 5692 5693 5694 5695 5695 5695 5696 5696 5696 5697 5697 5697 5697 5697 5697 5698 5698 5698 5699 5699 5700 5700 5701 5701 5700 5700 5700 5700 5699 5699 5699 5700 5701 5702 5702 5703 5703 5703 5703 5703 5702 5702 5701
5683 5684 5684 5685 5686 5686 5687 5687 5688 5688 5688 5689 5689 5688 5689 5689 5689 5690 5690 5690 5690 5691 5691 5691 5691 5691 5690 5690 5689 5689 5689 5689 5689 5690 5691 5691 5691 5692 5692 5692 5692 5691 5691 5690
5674 5675 5676 5677 5677 5678 5678 5679 5679 5679 5680 5680 5680 5680 5680 5680 5681 5681 5681 5681 5681 5681 5682 5681 5681 5681 5680 5680 5679 5679 5679 5679 5679 5679 5680 5680 5680 5681 5681 5681 5681 5680 5679 5678
5666 5667 5667 5668 5668 5669 5669 5670 5670 5671 5671 5671 5671 5671 5672 5672 5672 5672 5672 5672 5672 5672 5672 5672 5671 5671 5671 5670 5670 5669 5669 5669 5669 5669 5669 5669 5670 5670 5670 5670 5669 5669 5668 5667
5657 5658 5658 5659 5660 5660 5660 5660 5661 5662 5662 5662 5662 5662 5662 5663 5663 5663 5663 5663 5663 5662 5662 5662 5661 5661 5660 5660 5659 5659 5659 5659 5659 5659 5659 5659 5659 5659 5659 5659 5658 5657 5656 5655
5648 5649 5650 5650 5650 5650 5651 5651 5651 5652 5653 5653 5653 5653 5653 5653 5653 5653 5653 5653 5653 5652 5652 5651 5651 5651 5650 5650 5649 5649 5649 5649 5649 5648 5648 5649 5649 5649 5648 5648 5647 5646 5645 5644
5639 5640 5640 5641 5641 5641 5641 5642 5642 5643 5643 5643 5643 5643 5643 5643 5643 5643 5643 5643 5642 5642 5642 5641 5640 5640 5640 5640 5640 5639 5639 5639 5639 5638 5638 5638 5638 5638 5637 5637 5636 5635 5633 5632
5630 5631 5631 5631 5631 5632 5632 5633 5633 5633 5633 5633 5633 5633 5633 5633 5634 5633 5633 5633 5632 5631 5631 5631 5630 5630 5630 5630 5629 5629 5629 5629 5628 5628 5628 5628 5627 5627 5626 5625 5624 5623 5621 5620
5622 5622 5622 5622 5623 5623 5623 5623 5623 5623 5623 5624 5624 5624 5623 5623 5624 5623 5623 5622 5621 5621 5621 5621 5620 5620 5619 5619 5619 5619 5619 5619 5618 5618 5618 5617 5616 5616 5615 5614 5612 5611 5609 5608
5613 5613 5613 5613 5614 5614 5614 5613 5613 5613 5614 5614 5614 5614 5613 5613 5613 5613 5613 5612 5611 5611 5611 5610 5610 5610 5609 5609 5609 5609 5609 5609 5608 5608 5607 5606 5605 5604 5603 5601 5600 5599 5597 5596
5604 5604 5604 5604 5605 5604 5604 5604 5604 5604 5604 5604 5604 5603 5603 5603 5603 5602 5602 5601 5601 5600 5600 5600 5599 5599 5599 5599 5598 5598 5598 5597 5597 5596 5595 5594 5593 5592 5590 5589 5587 5586 5584 5583